WJA616 CYMO-CYTZ

Flight info

Callsign WJA616
Flight time 1h 18m
Altitude 38000
Route BUBAN DCT ILUSI
Aircraft B736/M-SDE2E3FGHIRWXY/LB1

Departure

Time 2026-04-29 18:27
Airport Moosonee Airport (CYMO)

Arrival

Time 2026-04-29 19:46
Airport Billy Bishop Toronto City Airport (CYTZ)
Time Latitude Longitude Altitude Speed Heading
2026-04-29 18:03 51.28932 -80.61372 32 ft 0 kts 30°
2026-04-29 18:21 51.28935 -80.61369 31 ft 4 kts 31°
2026-04-29 18:21 51.28941 -80.61298 31 ft 7 kts 119°
2026-04-29 18:21 51.28904 -80.61173 30 ft 15 kts 105°
2026-04-29 18:21 51.28874 -80.61008 29 ft 15 kts 106°
2026-04-29 18:22 51.28866 -80.60970 29 ft 0 kts 107°
2026-04-29 18:24 51.28865 -80.60963 29 ft 3 kts 107°
2026-04-29 18:24 51.28849 -80.60847 28 ft 15 kts 76°
2026-04-29 18:24 51.28974 -80.60644 28 ft 38 kts 44°
2026-04-29 18:25 51.29201 -80.60291 27 ft 46 kts 41°
2026-04-29 18:25 51.29420 -80.59957 28 ft 30 kts 43°
2026-04-29 18:25 51.29519 -80.59804 28 ft 13 kts 42°
2026-04-29 18:25 51.29588 -80.59729 28 ft 6 kts 57°
2026-04-29 18:26 51.29577 -80.59708 28 ft 5 kts 229°
2026-04-29 18:26 51.29559 -80.59744 28 ft 0 kts 222°
2026-04-29 18:27 51.29514 -80.59811 28 ft 38 kts 224°
2026-04-29 18:27 51.29131 -80.60393 28 ft 109 kts 225°
2026-04-29 18:27 51.28502 -80.61370 288 ft 137 kts 229°
2026-04-29 18:27 51.27657 -80.62182 847 ft 156 kts 191°
2026-04-29 18:28 51.26588 -80.61982 1690 ft 152 kts 173°
2026-04-29 18:28 51.25511 -80.61588 2114 ft 171 kts 174°
2026-04-29 18:28 51.24335 -80.61653 2633 ft 175 kts 199°
2026-04-29 18:28 51.23070 -80.62041 3141 ft 196 kts 188°
2026-04-29 18:29 51.21665 -80.61923 3723 ft 213 kts 176°
2026-04-29 18:29 51.20665 -80.61693 4087 ft 225 kts 175°
2026-04-29 18:29 51.18503 -80.61146 4878 ft 247 kts 174°
2026-04-29 18:29 51.16761 -80.60715 5488 ft 262 kts 174°
2026-04-29 18:30 51.14926 -80.60271 6041 ft 278 kts 174°
2026-04-29 18:30 51.13002 -80.59808 6820 ft 284 kts 174°
2026-04-29 18:30 51.11044 -80.59335 7723 ft 285 kts 174°
2026-04-29 18:30 51.09090 -80.58865 8583 ft 287 kts 174°
2026-04-29 18:31 51.07125 -80.58394 9402 ft 289 kts 174°
2026-04-29 18:31 51.05143 -80.57918 10211 ft 292 kts 175°
2026-04-29 18:31 51.03090 -80.57429 10716 ft 306 kts 174°
2026-04-29 18:31 51.00942 -80.56915 11174 ft 320 kts 174°
2026-04-29 18:32 50.98705 -80.56381 11598 ft 336 kts 174°
2026-04-29 18:32 50.93908 -80.55238 12694 ft 355 kts 174°
2026-04-29 18:32 50.91477 -80.54654 13466 ft 357 kts 174°
2026-04-29 18:33 50.89042 -80.54069 14217 ft 359 kts 175°
2026-04-29 18:33 50.86569 -80.53479 14912 ft 362 kts 175°
2026-04-29 18:33 50.84071 -80.52885 15606 ft 364 kts 175°
2026-04-29 18:33 50.81578 -80.52296 16275 ft 367 kts 175°
2026-04-29 18:34 50.79042 -80.51701 16945 ft 370 kts 175°
2026-04-29 18:34 50.77352 -80.51303 17400 ft 372 kts 175°
2026-04-29 18:34 50.73928 -80.50496 18275 ft 375 kts 175°
2026-04-29 18:34 50.71348 -80.49887 18958 ft 377 kts 175°
2026-04-29 18:35 50.68758 -80.49276 19645 ft 379 kts 175°
2026-04-29 18:35 50.66147 -80.48659 20279 ft 382 kts 176°
2026-04-29 18:35 50.63528 -80.48038 20935 ft 384 kts 176°
2026-04-29 18:35 50.60894 -80.47413 21552 ft 387 kts 176°
2026-04-29 18:36 50.58232 -80.46782 22189 ft 389 kts 176°
2026-04-29 18:36 50.55571 -80.46152 22795 ft 391 kts 176°
2026-04-29 18:36 50.52875 -80.45518 23395 ft 394 kts 176°
2026-04-29 18:36 50.50160 -80.44880 24004 ft 395 kts 176°
2026-04-29 18:37 50.47426 -80.44241 24529 ft 399 kts 176°
2026-04-29 18:37 50.44698 -80.43604 25065 ft 402 kts 176°
2026-04-29 18:37 50.41920 -80.42956 25589 ft 405 kts 176°
2026-04-29 18:37 50.39160 -80.42313 26128 ft 407 kts 175°
2026-04-29 18:38 50.36339 -80.41655 26675 ft 410 kts 175°
2026-04-29 18:38 50.33530 -80.41001 27206 ft 412 kts 175°
2026-04-29 18:38 50.30704 -80.40344 27739 ft 414 kts 175°
2026-04-29 18:38 50.27867 -80.39684 28210 ft 417 kts 175°
2026-04-29 18:39 50.24970 -80.39012 28686 ft 419 kts 175°
2026-04-29 18:39 50.22099 -80.38347 29176 ft 422 kts 175°
2026-04-29 18:39 50.19203 -80.37677 29622 ft 424 kts 175°
2026-04-29 18:39 50.16279 -80.37001 30092 ft 426 kts 175°
2026-04-29 18:40 50.13325 -80.36320 30492 ft 430 kts 175°
2026-04-29 18:40 50.10383 -80.35641 31037 ft 428 kts 175°
2026-04-29 18:40 50.07442 -80.34960 31422 ft 427 kts 176°
2026-04-29 18:40 50.04510 -80.34285 31705 ft 428 kts 176°
2026-04-29 18:41 49.95584 -80.32240 32552 ft 430 kts 176°
2026-04-29 18:41 49.92600 -80.31558 32804 ft 431 kts 175°
2026-04-29 18:42 49.89584 -80.30870 33075 ft 432 kts 175°
2026-04-29 18:42 49.86538 -80.30177 33324 ft 433 kts 175°
2026-04-29 18:42 49.83566 -80.29501 33582 ft 435 kts 175°
2026-04-29 18:42 49.80572 -80.28820 33853 ft 436 kts 175°
2026-04-29 18:43 49.77596 -80.28143 34209 ft 436 kts 175°
2026-04-29 18:43 49.74609 -80.27464 34561 ft 435 kts 175°
2026-04-29 18:43 49.71625 -80.26787 34880 ft 435 kts 175°
2026-04-29 18:43 49.68633 -80.26109 35171 ft 435 kts 175°
2026-04-29 18:44 49.65640 -80.25432 35479 ft 435 kts 175°
2026-04-29 18:44 49.62677 -80.24763 35775 ft 434 kts 175°
2026-04-29 18:44 49.59679 -80.24088 35999 ft 436 kts 175°
2026-04-29 18:44 49.56674 -80.23412 36208 ft 438 kts 175°
2026-04-29 18:45 49.53645 -80.22732 36452 ft 438 kts 175°
2026-04-29 18:45 49.50607 -80.22050 36709 ft 439 kts 175°
2026-04-29 18:45 49.47590 -80.21372 36922 ft 440 kts 175°
2026-04-29 18:45 49.44548 -80.20691 37130 ft 441 kts 175°
2026-04-29 18:46 49.41512 -80.20011 37361 ft 441 kts 175°
2026-04-29 18:46 49.38481 -80.19334 37549 ft 442 kts 174°
2026-04-29 18:46 49.35446 -80.18656 37732 ft 443 kts 175°
2026-04-29 18:46 49.32384 -80.17973 37895 ft 444 kts 175°
2026-04-29 18:47 49.26257 -80.16610 37940 ft 446 kts 175°
2026-04-29 18:47 49.20161 -80.15253 37944 ft 443 kts 175°
2026-04-29 18:48 49.14072 -80.13904 37945 ft 443 kts 175°
2026-04-29 18:48 49.08009 -80.12567 37946 ft 443 kts 175°
2026-04-29 18:49 49.01928 -80.11227 37948 ft 442 kts 175°
2026-04-29 18:49 48.95838 -80.09890 37949 ft 442 kts 175°
2026-04-29 18:50 48.89787 -80.08563 37950 ft 443 kts 175°
2026-04-29 18:50 48.83660 -80.07224 37948 ft 444 kts 175°
2026-04-29 18:51 48.77575 -80.05896 37950 ft 444 kts 175°
2026-04-29 18:51 48.71466 -80.04568 37952 ft 445 kts 175°
2026-04-29 18:52 48.65346 -80.03240 37946 ft 444 kts 175°
2026-04-29 18:52 48.59232 -80.01917 37944 ft 443 kts 175°
2026-04-29 18:53 48.53145 -80.00598 37940 ft 443 kts 175°
2026-04-29 18:53 48.47061 -79.99286 37940 ft 443 kts 175°
2026-04-29 18:54 48.40951 -79.97975 37942 ft 444 kts 175°
2026-04-29 18:54 48.34878 -79.96674 37931 ft 445 kts 175°
2026-04-29 18:55 48.28757 -79.95365 37939 ft 445 kts 175°
2026-04-29 18:55 48.22643 -79.94061 37929 ft 444 kts 175°
2026-04-29 18:56 48.16519 -79.92759 37936 ft 443 kts 175°
2026-04-29 18:56 48.10456 -79.91473 37936 ft 444 kts 175°
2026-04-29 18:57 48.04337 -79.90176 37935 ft 444 kts 175°
2026-04-29 18:57 47.98217 -79.88884 37946 ft 443 kts 175°
2026-04-29 18:58 47.92136 -79.87602 37925 ft 443 kts 175°
2026-04-29 18:58 47.86030 -79.86317 37945 ft 444 kts 175°
2026-04-29 18:59 47.79908 -79.85032 37939 ft 443 kts 175°
2026-04-29 18:59 47.73804 -79.83755 37965 ft 443 kts 175°
2026-04-29 19:00 47.67700 -79.82479 37951 ft 442 kts 175°
2026-04-29 19:00 47.61632 -79.81218 37956 ft 443 kts 175°
2026-04-29 19:01 47.55536 -79.79952 37950 ft 443 kts 175°
2026-04-29 19:01 47.49428 -79.78686 37943 ft 441 kts 175°
2026-04-29 19:02 47.44367 -79.77638 37926 ft 441 kts 175°
2026-04-29 19:02 47.37274 -79.76174 37929 ft 442 kts 175°
2026-04-29 19:03 47.31184 -79.74920 37923 ft 441 kts 175°
2026-04-29 19:03 47.25131 -79.73677 37916 ft 440 kts 175°
2026-04-29 19:04 47.19059 -79.72434 37915 ft 440 kts 175°
2026-04-29 19:04 47.13018 -79.71201 37920 ft 440 kts 175°
2026-04-29 19:05 47.06942 -79.69963 37912 ft 440 kts 175°
2026-04-29 19:05 47.00877 -79.68728 37920 ft 441 kts 175°
2026-04-29 19:06 46.94808 -79.67496 37919 ft 441 kts 175°
2026-04-29 19:07 46.85740 -79.65656 37915 ft 440 kts 175°
2026-04-29 19:07 46.79684 -79.64435 37909 ft 440 kts 175°
2026-04-29 19:08 46.73625 -79.63216 37914 ft 440 kts 175°
2026-04-29 19:08 46.67535 -79.61992 37909 ft 439 kts 175°
2026-04-29 19:09 46.61446 -79.60772 37907 ft 439 kts 175°
2026-04-29 19:09 46.55339 -79.59552 37895 ft 439 kts 175°
2026-04-29 19:10 46.49306 -79.58347 37920 ft 439 kts 175°
2026-04-29 19:10 46.43229 -79.57136 37906 ft 439 kts 175°
2026-04-29 19:11 46.37133 -79.55926 37909 ft 440 kts 176°
2026-04-29 19:11 46.31098 -79.54729 37911 ft 440 kts 176°
2026-04-29 19:12 46.24985 -79.53520 37909 ft 440 kts 175°
2026-04-29 19:12 46.18930 -79.52328 37907 ft 439 kts 175°
2026-04-29 19:13 46.12858 -79.51134 37900 ft 439 kts 175°
2026-04-29 19:13 46.06816 -79.49946 37898 ft 438 kts 175°
2026-04-29 19:14 46.00752 -79.48757 37886 ft 439 kts 175°
2026-04-29 19:14 45.94684 -79.47568 37888 ft 438 kts 175°
2026-04-29 19:15 45.88654 -79.46391 37889 ft 438 kts 175°
2026-04-29 19:15 45.82590 -79.45213 37886 ft 440 kts 175°
2026-04-29 19:16 45.76548 -79.44039 37881 ft 439 kts 175°
2026-04-29 19:16 45.70470 -79.42860 37880 ft 440 kts 176°
2026-04-29 19:17 45.64415 -79.41689 37887 ft 440 kts 176°
2026-04-29 19:17 45.58300 -79.40509 37884 ft 439 kts 176°
2026-04-29 19:18 45.52255 -79.39344 37880 ft 440 kts 176°
2026-04-29 19:18 45.46212 -79.38182 37875 ft 440 kts 176°
2026-04-29 19:19 45.40157 -79.37022 37866 ft 439 kts 176°
2026-04-29 19:19 45.34084 -79.35859 37869 ft 440 kts 175°
2026-04-29 19:20 45.28008 -79.34698 37867 ft 440 kts 176°
2026-04-29 19:20 45.21940 -79.33540 37711 ft 433 kts 176°
2026-04-29 19:20 45.18964 -79.32970 37413 ft 432 kts 176°
2026-04-29 19:21 45.15938 -79.32400 36952 ft 445 kts 176°
2026-04-29 19:21 45.12815 -79.31816 36333 ft 461 kts 176°
2026-04-29 19:21 45.09669 -79.31223 35667 ft 459 kts 176°
2026-04-29 19:21 45.06509 -79.30620 35073 ft 458 kts 176°
2026-04-29 19:22 45.03369 -79.30016 34501 ft 447 kts 177°
2026-04-29 19:22 45.00372 -79.29436 34077 ft 434 kts 177°
2026-04-29 19:22 44.97400 -79.28867 33495 ft 422 kts 177°
2026-04-29 19:22 44.94491 -79.28317 32593 ft 419 kts 178°
2026-04-29 19:23 44.91609 -79.27783 31492 ft 420 kts 178°
2026-04-29 19:23 44.88692 -79.27245 30430 ft 418 kts 178°
2026-04-29 19:23 44.85817 -79.26714 29293 ft 414 kts 178°
2026-04-29 19:23 44.83017 -79.26193 28512 ft 402 kts 178°
2026-04-29 19:24 44.80285 -79.25679 28006 ft 385 kts 178°
2026-04-29 19:24 44.77662 -79.25190 27473 ft 377 kts 178°
2026-04-29 19:24 44.75023 -79.24712 26903 ft 388 kts 178°
2026-04-29 19:24 44.72337 -79.24230 26296 ft 395 kts 178°
2026-04-29 19:25 44.69635 -79.23735 25694 ft 383 kts 178°
2026-04-29 19:25 44.67044 -79.23251 25123 ft 368 kts 178°
2026-04-29 19:25 44.64563 -79.22791 24599 ft 363 kts 178°
2026-04-29 19:25 44.62030 -79.22362 23984 ft 373 kts 179°
2026-04-29 19:26 44.59430 -79.21962 23376 ft 375 kts 178°
2026-04-29 19:26 44.56901 -79.21265 22814 ft 374 kts 170°
2026-04-29 19:26 44.54451 -79.20041 22161 ft 376 kts 164°
2026-04-29 19:26 44.52081 -79.18532 21531 ft 374 kts 161°
2026-04-29 19:27 44.49756 -79.16917 20934 ft 370 kts 160°
2026-04-29 19:27 44.47483 -79.15305 20354 ft 366 kts 160°
2026-04-29 19:27 44.45233 -79.13722 19772 ft 362 kts 160°
2026-04-29 19:27 44.42984 -79.12164 19194 ft 358 kts 161°
2026-04-29 19:28 44.40734 -79.10633 18661 ft 364 kts 161°
2026-04-29 19:28 44.38456 -79.09103 18134 ft 369 kts 161°
2026-04-29 19:28 44.36161 -79.07563 17562 ft 365 kts 160°
2026-04-29 19:28 44.33876 -79.06031 17039 ft 358 kts 160°
2026-04-29 19:29 44.31678 -79.04561 16481 ft 354 kts 160°
2026-04-29 19:29 44.29459 -79.03083 15903 ft 350 kts 160°
2026-04-29 19:29 44.27261 -79.01622 15328 ft 351 kts 160°
2026-04-29 19:29 44.25022 -79.00142 14754 ft 361 kts 159°
2026-04-29 19:30 44.22768 -78.98652 14162 ft 361 kts 159°
2026-04-29 19:30 44.20506 -78.97151 13563 ft 358 kts 158°
2026-04-29 19:30 44.18285 -78.95717 12946 ft 354 kts 161°
2026-04-29 19:30 44.15964 -78.94737 12312 ft 345 kts 175°
2026-04-29 19:31 44.13634 -78.94800 11748 ft 334 kts 193°
2026-04-29 19:31 44.11472 -78.95822 11189 ft 326 kts 208°
2026-04-29 19:31 44.09482 -78.97274 10810 ft 315 kts 210°
2026-04-29 19:31 44.07619 -78.98701 10610 ft 301 kts 211°
2026-04-29 19:32 44.05819 -79.00092 10494 ft 286 kts 211°
2026-04-29 19:32 44.04124 -79.01386 10377 ft 272 kts 211°
2026-04-29 19:32 44.02511 -79.02612 10255 ft 259 kts 211°
2026-04-29 19:32 44.00963 -79.03792 10130 ft 252 kts 211°
2026-04-29 19:33 43.99399 -79.04993 9854 ft 259 kts 211°
2026-04-29 19:33 43.97837 -79.06192 9493 ft 258 kts 211°
2026-04-29 19:33 43.96273 -79.07389 9166 ft 254 kts 211°
2026-04-29 19:33 43.94743 -79.08559 8846 ft 250 kts 211°
2026-04-29 19:34 43.93237 -79.09709 8533 ft 247 kts 211°
2026-04-29 19:34 43.91733 -79.10857 8215 ft 244 kts 211°
2026-04-29 19:34 43.90265 -79.11981 7915 ft 247 kts 211°
2026-04-29 19:34 43.88736 -79.13164 7592 ft 254 kts 211°
2026-04-29 19:35 43.87197 -79.14356 7274 ft 251 kts 211°
2026-04-29 19:35 43.85680 -79.15520 6964 ft 248 kts 211°
2026-04-29 19:35 43.84179 -79.16659 6641 ft 245 kts 211°
2026-04-29 19:35 43.82695 -79.17788 6341 ft 242 kts 211°
2026-04-29 19:36 43.81201 -79.18907 6035 ft 249 kts 211°
2026-04-29 19:36 43.79667 -79.20061 5714 ft 252 kts 211°
2026-04-29 19:36 43.78153 -79.21232 5387 ft 243 kts 212°
2026-04-29 19:36 43.76701 -79.22321 5098 ft 233 kts 210°
2026-04-29 19:37 43.75304 -79.23347 4817 ft 225 kts 211°
2026-04-29 19:37 43.74386 -79.24030 4624 ft 220 kts 211°
2026-04-29 19:37 43.72640 -79.25351 4271 ft 210 kts 211°
2026-04-29 19:37 43.71384 -79.26306 4011 ft 205 kts 211°
2026-04-29 19:38 43.70142 -79.27245 3750 ft 201 kts 211°
2026-04-29 19:38 43.68938 -79.28158 3497 ft 198 kts 211°
2026-04-29 19:38 43.67736 -79.29076 3257 ft 193 kts 211°
2026-04-29 19:38 43.66579 -79.29958 3013 ft 189 kts 211°
2026-04-29 19:39 43.65438 -79.30821 2816 ft 181 kts 211°
2026-04-29 19:39 43.64366 -79.31628 2740 ft 169 kts 211°
2026-04-29 19:39 43.63351 -79.32383 2710 ft 166 kts 211°
2026-04-29 19:39 43.62338 -79.33141 2656 ft 164 kts 211°
2026-04-29 19:40 43.61334 -79.33902 2603 ft 165 kts 212°
2026-04-29 19:40 43.60339 -79.34663 2545 ft 163 kts 212°
2026-04-29 19:40 43.59334 -79.35426 2489 ft 163 kts 212°
2026-04-29 19:40 43.58327 -79.36164 2434 ft 164 kts 210°
2026-04-29 19:41 43.57320 -79.36877 2387 ft 157 kts 210°
2026-04-29 19:41 43.56373 -79.37521 2328 ft 146 kts 208°
2026-04-29 19:41 43.55455 -79.38123 2285 ft 148 kts 207°
2026-04-29 19:41 43.54529 -79.38714 2247 ft 147 kts 207°
2026-04-29 19:42 43.53793 -79.39629 2189 ft 139 kts 258°
2026-04-29 19:42 43.53806 -79.40452 2179 ft 129 kts 301°
2026-04-29 19:42 43.54499 -79.41769 2150 ft 126 kts 312°
2026-04-29 19:42 43.55011 -79.42738 2101 ft 126 kts 312°
2026-04-29 19:43 43.55542 -79.43698 1968 ft 125 kts 314°
2026-04-29 19:43 43.56097 -79.44611 1810 ft 124 kts 318°
2026-04-29 19:43 43.56684 -79.45480 1643 ft 123 kts 319°
2026-04-29 19:43 43.57307 -79.46307 1491 ft 122 kts 323°
2026-04-29 19:44 43.58058 -79.46634 1445 ft 119 kts 17°
2026-04-29 19:44 43.58807 -79.46163 1481 ft 114 kts 15°
2026-04-29 19:44 43.59619 -79.45906 1210 ft 125 kts 13°
2026-04-29 19:44 43.60469 -79.45583 1049 ft 127 kts 15°
2026-04-29 19:45 43.61275 -79.45157 1030 ft 123 kts 33°
2026-04-29 19:45 43.61786 -79.44179 873 ft 135 kts 69°
2026-04-29 19:45 43.62031 -79.42921 773 ft 136 kts 70°
2026-04-29 19:45 43.62354 -79.41743 571 ft 130 kts 64°
2026-04-29 19:46 43.62688 -79.40578 314 ft 130 kts 69°
2026-04-29 19:46 43.62952 -79.39503 237 ft 87 kts 71°
2026-04-29 19:46 43.63068 -79.39028 237 ft 28 kts 69°
2026-04-29 19:46 43.63136 -79.38983 237 ft 11 kts 285°
2026-04-29 19:47 43.63125 -79.39045 237 ft 0 kts 251°
2026-04-29 19:47 43.63124 -79.39051 237 ft 0 kts 251°
2026-04-29 19:48 43.63108 -79.39114 237 ft 8 kts 251°
2026-04-29 19:48 43.63089 -79.39191 237 ft 8 kts 251°
2026-04-29 19:49 43.63088 -79.39272 237 ft 9 kts 281°
2026-04-29 19:49 43.63068 -79.39386 237 ft 13 kts 252°
2026-04-29 19:49 43.63042 -79.39499 237 ft 7 kts 255°
2026-04-29 19:49 43.63063 -79.39527 237 ft 4 kts 342°
2026-04-29 19:50 43.63089 -79.39539 237 ft 0 kts 342°